STARLINK-1718, 46674

Orbit data source: Space-Track

STARLINK-1718, 46674 is a payload satellite owned by SpaceX/Seattle (US) in LEO that was launched on Sun, 18 Oct 2020 UTC via an FALCON 9 launch vehicle from the Air Force Eastern Test Range (AFETR). Payload-class satellites include a variety of spacecraft equipped with specific instruments for various scientific and technological missions. These include communications satellites like Starlink; space stations such as the ISS; scientific satellites like the Hubble; Earth observation satellites from companies like Planet Labs, Umbra, and HawkEye 360; GPS; miniature CubeSats for education and research; and military/defense satellites.

Loading next visibility...
Identifier
46674, 2020-073E
Orbit
LEO
Country
Flag of USUS
Related business
Manufacturer
SpaceX/Seattle
Mission
Partially operational Commercial Communications
Bus & Motor
STARLINK, Unknown motor
Mass
260 kg wet, ~248 kg dry
Launch date (UTC)
2020-10-18 (6 years ago)
Launch vehicle
FALCON 9
Launch site
Air Force Eastern Test Range (AFETR)
Object type
Payload
Rocket body
Debris
Shape & HBR
Box + 1 Pan, 10.1 m
Radar Cross Section
13.562 m², Large (>1 m²)

Expand to show TLE details & history
Last TLE update: 6 hours ago

TLE from 6 hours ago
0 STARLINK-1718
1 46674U 20073E   26168.95750017  .00113365  00000-0  65313-3 0  9996
2 46674  53.0417  95.1216 0002205 175.5068 184.5972 15.77877745313038
Epoch: 2026-06-17T22:58Z
TLE epoch observation values (Epoch: 2026-06-17T22:58:48.014Z)
Latitude
-0.00004°
Longitude
-155.78621°
Altitude
338.836 km
Speed
7.706 km/s
True Right ascension
06h 20m 29s
True Declination
0° 00' 00"
Sunlit
Object was in daylight at epoch
Visualization orbit readout
Latitude
Unknown
Longitude
Unknown
Altitude
Unknown
Speed
Unknown
Apparent Right ascension
Unknown
Apparent Declination
Unknown
Sunlit
N/A
Visualization observer readout
Local Sidereal Time
16:08:21
Azimuth
Unknown
Elevation
Unknown
Doppler factor
Unknown
Orbital elements
Apogee altitude
338.216 km
Perigee altitude
335.255 km
Semi-major axis
6,714.873 km
Eccentricity
0.00022
Inclination
53.0417°
RAAN
95.1216°
Arg. of periapsis
175.5068°
True anomaly
184.59518°
Mean anomaly
184.5972°
Eccentric anomaly
184.59619°
Mean motion
3.94445 °/min
Orbital period
91.27 mins
BSTAR
0.00065313
Loading maneuver chart data...
Computing Atmospheric mass density...

Documentation

Showing up to 5 results
|